This is the latest recevied weather packets stored in our database for station/object K6CQU-13. If no packets are shown the sender has not sent any weather packets the latest 10 day(s).
| Time | Temp. | Humidity | Pressure | Rain* | Wind** | Luminosity | Snow |
|---|---|---|---|---|---|---|---|
| 1778102716 | 23.33° C | 57% | 1018.8 hPa | 0 mm | - | 869 W/m² | - |
| 1778102416 | 23.33° C | 57% | 1018.8 hPa | 0 mm | - | 872 W/m² | - |
| 1778102116 | 23.33° C | 55% | 1018.8 hPa | 0 mm | - | 874 W/m² | - |
| 1778101816 | 23.33° C | 58% | 1018.9 hPa | 0 mm | - | 888 W/m² | - |
| 1778101517 | 22.78° C | 57% | 1018.9 hPa | 0 mm | - | 896 W/m² | - |
| 1778101216 | 22.78° C | 57% | 1018.9 hPa | 0 mm | - | 895 W/m² | - |
| 1778100916 | 22.78° C | 57% | 1018.9 hPa | 0 mm | - | 897 W/m² | - |
| 1778100616 | 22.78° C | 56% | 1019 hPa | 0 mm | - | 908 W/m² | - |
| 1778100317 | 22.78° C | 57% | 1019 hPa | 0 mm | - | 913 W/m² | - |
| 1778100016 | 22.78° C | 57% | 1019.1 hPa | 0 mm | - | 908 W/m² | - |
| 1778099716 | 22.78° C | 56% | 1019.2 hPa | 0 mm | - | 916 W/m² | - |
| 1778099417 | 22.78° C | 57% | 1019.2 hPa | 0 mm | - | 913 W/m² | - |
| 1778099116 | 22.78° C | 56% | 1019.3 hPa | 0 mm | - | 913 W/m² | - |
| 1778098817 | 22.78° C | 56% | 1019.4 hPa | 0 mm | - | 928 W/m² | - |
| 1778098516 | 22.78° C | 55% | 1019.4 hPa | 0 mm | - | 976 W/m² | - |
| 1778098216 | 22.78° C | 55% | 1019.5 hPa | 0 mm | - | 963 W/m² | - |
| 1778097916 | 22.78° C | 54% | 1019.7 hPa | 0 mm | - | 961 W/m² | - |
| 1778097616 | 22.22° C | 54% | 1019.7 hPa | 0 mm | - | 962 W/m² | - |
| 1778097316 | 22.22° C | 54% | 1019.7 hPa | 0 mm | - | 946 W/m² | - |
| 1778097016 | 21.67° C | 53% | 1019.8 hPa | 0 mm | - | 930 W/m² | - |
| 1778096716 | 21.67° C | 53% | 1019.9 hPa | 0 mm | - | 926 W/m² | - |
| 1778096416 | 21.67° C | 53% | 1019.8 hPa | 0 mm | - | 921 W/m² | - |
| 1778096118 | 21.67° C | 54% | 1019.8 hPa | 0 mm | - | 918 W/m² | - |
| 1778095818 | 21.67° C | 55% | 1019.8 hPa | 0 mm | - | 912 W/m² | - |
| 1778095518 | 21.67° C | 57% | 1019.9 hPa | 0 mm | - | 907 W/m² | - |
* Rain latest hour (hover to see other rain measurements)
** Current wind speed in m/s (hover to see current wind gust speed)